www.pogodaiklimat.ru

Погода и климат >> Архив погоды >> Япония >> Танегасима


ПОГОДА на Танегасиме

  • Прогноз погоды на Танегасиме
  • Монитор погоды на Танегасиме

АРХИВ ПОГОДЫ на Танегасиме

Время (UTC), дата Ветер
(напр.,м/с)
 
Видим.   Явления Облачность Т
(С)
Тd
(С)
f
(%)
Тe
(С)
Тes
(С)
Комфортность P
(гПа)
Po
(гПа)
Тmin
(С)
Tmax
(С)
R
(мм)
R24
(мм)
S
(см)
22 12.08 СВ 7 12 км н/о +28.3 +26.1 88 +43 +43 опасность
перегрева
997.6 993.4
23 12.08 СВ 8 13 км н/о +28.7 +25.9 85 +43 +43 опасность
перегрева
997.4 993.2
00 13.08 СВ 8 12 км {дождь} н/о +29.9 +26.3 81 +46 +46 опасность
перегрева
997.2 993.0 +27.9 0.0
01 13.08 СВ 7 14 км н/о +29.2 +25.8 82 +44 +44 опасность
перегрева
997.1 992.9
02 13.08 СВ 8 15 км н/о +29.2 +25.2 79 +42 +42 опасность
перегрева
996.6 992.4
03 13.08 СВ 10 14 км н/о +29.4 +25.4 79 +43 +43 опасность
перегрева
996.2 992.0
04 13.08 СВ 7 12 км слаб. дождь н/о +27.7 +26.1 91 +42 +42 опасность
перегрева
996.0 991.8
05 13.08 СВ 8 11 км слаб. дождь н/о +27.7 +26.1 91 +42 +42 опасность
перегрева
995.3 991.1
06 13.08 СВ 8 13 км в посл. час дождь н/о +28.8 +25.8 84 +43 +43 опасность
перегрева
994.6 990.4 1
07 13.08 СВ 9 11 км слаб. дождь н/о +28.6 +25.8 85 +43 +43 опасность
перегрева
994.4 990.2
08 13.08 СВ 9 11 км в посл. час дождь н/о +28.8 +25.6 83 +43 +43 опасность
перегрева
993.6 989.4
09 13.08 СВ 9 9000 м слаб. дождь н/о +28.5 +25.9 86 +43 +43 опасность
перегрева
993.7 989.5
10 13.08 СВ 9 8000 м слаб. дождь н/о +28.2 +26.0 88 +42 +42 опасность
перегрева
994.1 989.9
11 13.08 СВ 8 6000 м слаб. дождь н/о +27.7 +26.3 92 +42 +42 опасность
перегрева
994.1 989.9
12 13.08 СВ 9 6000 м слаб. дождь н/о +27.6 +26.2 92 +42 +42 опасность
перегрева
994.3 990.1 +30.3 3
13 13.08 СВ 9 7000 м слаб. дождь н/о +27.4 +26.0 92 +41 +41 опасность
перегрева
993.9 989.7
14 13.08 СВ 9 7000 м в посл. час дождь н/о +27.8 +26.0 90 +42 +42 опасность
перегрева
993.4 989.2
15 13.08 СВ 10 4300 м слаб. дождь н/о +27.4 +26.4 94 +42 +42 опасность
перегрева
992.5 988.3
17 13.08 СВ 8 5000 м слаб. дождь н/о +27.2 +26.0 93 +41 +41 опасность
перегрева
991.2 987.0
18 13.08 СВ 10 7000 м слаб. дождь н/о +26.8 +25.9 95 +40 +40 очень
душно
990.3 986.1 7
19 13.08 СВ 9 7000 м в посл. час дождь н/о +26.9 +26.0 95 +40 +40 очень
душно
989.8 985.6
20 13.08 СВ 10 1900 м сильн. дождь н/о +26.5 +26.0 97 +40 +40 очень
душно
989.3 985.1
21 13.08 СВ 10 5000 м слаб. дождь н/о +26.6 +25.9 96 +40 +40 очень
душно
989.2 985.0
22 13.08 СВ 11 7000 м слаб. дождь н/о +26.7 +26.2 97 +40 +40 очень
душно
988.7 984.5
23 13.08 СВ 11 6000 м слаб. дождь н/о +26.8 +26.1 96 +40 +40 очень
душно
988.7 984.5
00 14.08 С 14 5000 м слаб. дождь н/о +27.1 +26.2 95 +41 +41 опасность
перегрева
988.4 984.2 +26.4 18
01 14.08 С 13 4600 м слаб. дождь н/о +26.5 +26.0 97 +40 +40 очень
душно
987.8 983.6
02 14.08 С 13 5000 м слаб. дождь н/о +26.7 +26.2 97 +40 +40 очень
душно
987.2 983.0
03 14.08 С 11 5000 м слаб. дождь н/о +26.6 +25.7 95 +39 +39 очень
душно
986.2 982.0
04 14.08 С 12 7000 м слаб. дождь н/о +26.9 +26.0 95 +40 +40 очень
душно
985.1 980.9
05 14.08 С 13 20 км слаб. дождь н/о +27.7 +25.5 88 +41 +41 опасность
перегрева
983.5 979.4
06 14.08 С 15 2500 м дождь н/о +26.5 +26.2 98 +40 +40 очень
душно
982.9 978.7 21
07 14.08 СЗ 16 1800 м сильн. дождь н/о +26.6 +25.9 96 +40 +40 очень
душно
981.2 977.1
08 14.08 СЗ 17 1400 м дождь н/о +26.4 +26.2 99 +40 +40 очень
душно
980.3 976.2
09 14.08 С 15 2300 м дождь н/о +26.4 +26.4 100 +40 +40 очень
душно
980.7 976.6
10 14.08 СЗ 17 3600 м слаб. дождь н/о +26.3 +25.8 97 +39 +39 очень
душно
979.4 975.3
11 14.08 СЗ 19 1600 м сильн. дождь н/о +26.3 +26.0 98 +39 +39 очень
душно
978.3 974.2
12 14.08 СЗ 15 2600 м слаб. дождь н/о +26.4 +26.4 100 +40 +40 очень
душно
979.1 975.0 +27.7 74
13 14.08 СЗ 16 2200 м слаб. дождь н/о +26.3 +26.3 100 +40 +40 очень
душно
978.8 974.7
14 14.08 С 13 1800 м дождь н/о +26.7 +26.7 100 +41 +41 опасность
перегрева
979.2 975.1
15 14.08 СЗ 16 2800 м слаб. дождь н/о +26.2 +26.2 100 +39 +39 очень
душно
979.2 975.1
16 14.08 СЗ 16 10 км в посл. час дождь н/о +26.9 +25.9 94 +40 +40 очень
душно
979.4 975.3
17 14.08 СЗ 16 12 км в посл. час дождь н/о +27.9 +25.9 89 +42 +42 опасность
перегрева
979.6 975.5
18 14.08 СЗ 11 4800 м слаб. дождь н/о +26.8 +26.3 97 +41 +41 опасность
перегрева
980.8 976.7 19
19 14.08 З 10 12 км слаб. дождь н/о +27.4 +25.8 91 +41 +41 опасность
перегрева
981.4 977.3
21 14.08 З 12 8000 м слаб. дождь н/о +27.6 +26.0 91 +41 +41 опасность
перегрева
982.8 978.7
22 14.08 З 13 7000 м слаб. дождь н/о +27.3 +25.7 91 +40 +40 очень
душно
983.8 979.7
23 14.08 З 14 6000 м слаб. дождь н/о +27.0 +26.1 95 +41 +41 опасность
перегрева
985.6 981.4
00 15.08 З 16 7000 м слаб. дождь н/о +27.7 +26.3 92 +42 +42 опасность
перегрева
986.6 982.4 +26.1 22
01 15.08 З 20 1300 м дождь н/о +26.8 +26.5 98 +41 +41 опасность
перегрева
988.1 983.9
02 15.08 З 16 6000 м слаб. дождь н/о +27.2 +26.2 94 +41 +41 опасность
перегрева
989.1 984.9
04 15.08 З 15 3800 м слаб. дождь н/о +26.8 +26.1 96 +40 +40 очень
душно
991.2 987.0
06 15.08 З 16 5000 м слаб. дождь н/о +28.4 +26.6 90 +44 +44 опасность
перегрева
992.1 987.9 9
08 15.08 З 17 8000 м дымка н/о +28.4 +25.4 84 +42 +42 опасность
перегрева
993.2 989.0
09 15.08 З 16 9000 м дымка {дождь} н/о +28.2 +24.8 82 +40 +40 очень
душно
994.1 989.9
10 15.08 З 14 10 км н/о +28.2 +25.2 84 +41 +41 опасность
перегрева
995.2 991.0
11 15.08 З 12 9000 м дымка н/о +28.0 +25.2 85 +41 +41 опасность
перегрева
995.8 991.6
12 15.08 З 12 9000 м дымка {дождь} н/о +28.0 +25.4 86 +41 +41 опасность
перегрева
996.7 992.5 +28.9 9
13 15.08 З 12 6000 м слаб. дождь н/о +27.7 +25.3 87 +40 +40 очень
душно
997.5 993.3
14 15.08 З 12 8000 м слаб. дождь н/о +27.4 +25.6 90 +40 +40 очень
душно
997.6 993.4
15 15.08 ЮЗ 13 10 км слаб. дождь н/о +27.7 +25.0 85 +40 +40 очень
душно
997.9 993.7
16 15.08 ЮЗ 13 9000 м в посл. час дождь н/о +27.6 +25.2 87 +40 +40 очень
душно
997.9 993.7
17 15.08 З 11 10 км н/о +27.6 +25.2 87 +40 +40 очень
душно
998.3 994.1
18 15.08 З 11 11 км {дождь} н/о +27.6 +25.1 86 +40 +40 очень
душно
998.6 994.4 1
19 15.08 ЮЗ 10 12 км н/о +27.8 +25.2 86 +40 +40 очень
душно
999.1 994.9
20 15.08 ЮЗ 10 9000 м слаб. дождь н/о +26.9 +24.9 89 +39 +39 очень
душно
999.9 995.7
21 15.08 З 9 10 км в посл. час дождь н/о +27.5 +25.5 89 +40 +40 очень
душно
1000.1 995.9
22 15.08 З 9 13 км н/о +28.1 +25.3 85 +41 +41 опасность
перегрева
1000.7 996.5
23 15.08 З 8 12 км н/о +28.7 +25.5 83 +42 +42 опасность
перегрева
1001.1 996.9
00 16.08 З 9 14 км {дождь} н/о +29.2 +25.2 79 +42 +42 опасность
перегрева
1001.5 997.3 +26.5 1
01 16.08 З 8 14 км н/о +29.8 +25.6 78 +44 +44 опасность
перегрева
1001.7 997.5
02 16.08 З 9 12 км н/о +30.0 +25.5 77 +44 +44 опасность
перегрева
1001.7 997.5
03 16.08 З 8 13 км н/о +30.1 +25.8 78 +45 +45 опасность
перегрева
1001.6 997.4
04 16.08 З 9 16 км н/о +29.8 +24.9 75 +43 +43 опасность
перегрева
1001.8 997.6
05 16.08 З 8 15 км н/о +29.6 +24.5 74 +42 +42 опасность
перегрева
1001.8 997.6
06 16.08 З 7 14 км н/о +30.2 +25.5 76 +44 +44 опасность
перегрева
1001.6 997.4
07 16.08 З 6 15 км н/о +29.7 +24.8 75 +42 +42 опасность
перегрева
1001.5 997.3
08 16.08 З 5 12 км н/о +29.5 +25.3 78 +43 +43 опасность
перегрева
1001.6 997.4
11 16.08 З 5 9000 м дымка н/о +27.9 +25.3 86 +41 +41 опасность
перегрева
1003.2 999.0
12 16.08 З 5 9000 м дымка н/о +27.9 +25.7 88 +41 +41 опасность
перегрева
1003.9 999.7 +30.5
13 16.08 З 5 9000 м дымка н/о +27.8 +25.8 89 +41 +41 опасность
перегрева
1003.9 999.7
15 16.08 З 5 8000 м дымка н/о +27.6 +25.6 89 +41 +41 опасность
перегрева
1003.8 999.6
16 16.08 З 4 8000 м дымка н/о +27.5 +25.7 90 +41 +41 опасность
перегрева
1003.7 999.5
17 16.08 З 3 8000 м дымка н/о +27.5 +26.1 92 +41 +41 опасность
перегрева
1003.8 999.6
18 16.08 З 3 7000 м дымка н/о +27.4 +25.8 91 +41 +41 опасность
перегрева
1004.0 999.8
19 16.08 З 3 6000 м дымка н/о +27.4 +25.6 90 +40 +40 очень
душно
1003.9 999.7
20 16.08 СЗ 3 8000 м дымка н/о +27.2 +25.2 89 +39 +39 очень
душно
1004.0 999.8
21 16.08 З 2 7000 м дымка н/о +26.8 +25.2 91 +39 +39 очень
душно
1004.4 1000.2
22 16.08 В 2 6000 м дымка н/о +26.5 +25.6 95 +39 +39 очень
душно
1004.6 1000.4
23 16.08 СЗ 1 8000 м дымка н/о +28.1 +25.5 86 +41 +41 опасность
перегрева
1005.0 1000.8
00 17.08 СЗ 2 8000 м дымка н/о +28.4 +25.6 85 +42 +42 опасность
перегрева
1005.0 1000.8 +26.0
01 17.08 СЗ 2 8000 м дымка н/о +29.2 +25.8 82 +44 +44 опасность
перегрева
1004.9 1000.7
02 17.08 СЗ 2 9000 м дымка н/о +29.3 +25.5 80 +43 +43 опасность
перегрева
1005.3 1001.1
04 17.08 СЗ 2 8000 м дымка н/о +29.7 +25.9 80 +44 +44 опасность
перегрева
1005.0 1000.8
05 17.08 З 3 9000 м дымка н/о +30.5 +25.8 76 +45 +45 опасность
перегрева
1004.8 1000.6
06 17.08 З 3 10 км н/о +30.3 +25.6 76 +45 +45 опасность
перегрева
1004.3 1000.1
07 17.08 З 3 10 км н/о +30.4 +25.5 75 +45 +45 опасность
перегрева
1004.2 1000.0
08 17.08 ЮЗ 2 11 км н/о +30.2 +24.4 71 +42 +42 опасность
перегрева
1004.2 1000.0
09 17.08 ЮЗ 3 10 км н/о +29.6 +25.1 77 +43 +43 опасность
перегрева
1004.3 1000.1
10 17.08 ЮЗ 2 8000 м дымка н/о +28.7 +25.5 83 +42 +42 опасность
перегрева
1004.5 1000.3
13 17.08 ЮВ 2 10 км н/о +26.4 +24.4 89 +37 +37 очень
душно
1005.8 1001.5
14 17.08 Ю 2 10 км н/о +25.8 +23.9 89 +35 +35 очень
душно
1006.1 1001.8
15 17.08 ЮЗ 1 11 км н/о +25.5 +23.2 87 +34 +34 очень
душно
1006.2 1001.9
16 17.08 В 2 8000 м дымка н/о +25.0 +23.6 92 +34 +34 очень
душно
1006.0 1001.7
09 19.08 С 2 11 км в посл. час дождь н/о +27.3 +26.8 97 +42 +42 опасность
перегрева
1006.8 1002.6
10 19.08 ЮВ 1 10 км в посл. час дождь н/о +27.2 +26.9 98 +42 +42 опасность
перегрева
1007.1 1002.9
11 19.08 ЮВ 4 15 км н/о +27.1 +26.6 97 +42 +42 опасность
перегрева
1007.5 1003.2
13 19.08 ЮВ 4 15 км слаб. дождь н/о +27.3 +26.6 96 +42 +42 опасность
перегрева
1008.5 1004.2
14 19.08 ЮВ 4 15 км в посл. час дождь н/о +27.1 +26.6 97 +42 +42 опасность
перегрева
1008.5 1004.2
15 19.08 ЮВ 5 13 км слаб. дождь н/о +27.3 +26.6 96 +42 +42 опасность
перегрева
1008.7 1004.4
16 19.08 ЮВ 5 16 км в посл. час дождь н/о +27.4 +26.4 94 +42 +42 опасность
перегрева
1008.1 1003.9
17 19.08 Ю 7 18 км в посл. час дождь н/о +27.6 +25.8 90 +41 +41 опасность
перегрева
1007.9 1003.7
18 19.08 Ю 6 16 км {дождь} н/о +27.5 +25.9 91 +41 +41 опасность
перегрева
1007.9 1003.7 0.0
19 19.08 Ю 5 18 км н/о +27.7 +25.7 89 +41 +41 опасность
перегрева
1008.2 1004.0
20 19.08 Ю 5 14 км слаб. дождь н/о +27.5 +26.1 92 +41 +41 опасность
перегрева
1008.4 1004.2

 

Местоположение метеостанции Танегасима (Япония): широта 30.73 долгота 130.98 высота над уровнем моря 18 м.

В архиве по умолчанию представлена погода на Танегасиме за последнюю неделю. Архивные данные за месяц целиком и за предыдущие месяцы, начиная с января 2011 года, Вы можете получить, выбрав интересующий диапазон дат из раскрывающегося списка и нажав кнопку "Ввод!".


*Определитесь, кто Вы:
робот инопланетянин человек

Внимание! Время в таблицах - всемирное. Для получения местного времени необходимо прибавить поправку, которая равна 9 ч.

Смотрите также архив погоды в соседних городах и на ближайших метеорологических станциях:

Погода на Якусиме (Япония) (50 км)
Погода в Макурадзаки (Япония) (88 км)
Погода в Кагосиме (Япония) (100 км)
Погода в Абурацу (Япония) (103 км)
Погода в Мияконодзё (Япония) (112 км)
Погода в Миядзаки (Япония) (140 км)
Погода в Ушибуке (Япония) (142 км)
Погода в Акуне (Япония) (163 км)
Погода в Хитоёси (Япония) (167 км)
Погода в Нобеоке (Япония) (215 км)

Пояснения к столбцам:

Ветер - указаны скорость ветра в м/с - средняя за 10 мин, порывы в срок и между сроками (в фигурных скобках) и направление, откуда дует ветер: С - северный, СВ - северо-восточный, В - восточный, ЮВ - юго-восточный, Ю - южный, ЮЗ - юго-западный, З - западный, СЗ - северо-западный.
Видимость - горизонтальная дальность видимости в метрах или километрах. При видимости от 1 до 10 км при отсутствии осадков обычно наблюдается дымка, при ухудшении видимости до 1 км и менее - туман. В сухую погоду видимость может ухудшаться дымом, пылью или мглою.
Явления - указаны атмосферные явления, наблюдавшиеся в срок или в последний час перед сроком; фигурными скобками обозначены явления, наблюдавшиеся между сроками (за 1-3 часа до срока); квадратными скобками обозначены град или гололедные отложения с указанием их диаметра в мм.
Облачность - указаны через наклонную черту общая и нижняя облачность в баллах и высота нижней границы облаков в метрах; квадратными скобками обозначены формы облаков: Ci - перистые, Cs - перисто-слоистые, Cc - перисто-кучевые, Ac - высококучевые, As - высокослоистые, Sc - слоисто-кучевые, Ns - слоисто-дождевые, Cu - кучевые, Cb - кучево-дождевые. Подробнее классификацию облаков см. в Атласе облаков (PDF).
T - Температура воздуха - температура, измеренная на высоте 2 м над землей.
Td - Температура точки росы - температура, при понижении до которой содержащийся в воздухе водяной пар достигнет насыщения.
f - Относительная влажность воздуха - влажноcть воздуха, измеренная на высоте 2 м над землей.
Te - Эффективная температура - температура, которую ощущает одетый по сезону человек в тени. Характеристика душности погоды. При расчете учитывается влияние влажности воздуха и скорости ветра на теплоощущения человека.
Tes - Эффективная температура на солнце - температура, которую ощущает человек, с поправкой на солнечный нагрев. Характеристика знойности погоды. Зависит от высоты солнца над горизонтом, облачности и скорости ветра. Ночью, в пасмурную погоду, а также при ветре 12 м/с и более поправка равна нулю.
P - Атмосферное давление - приведенное к уровню моря атмосферное давление.
Po - Атмосферное давление - измеренное на уровне метеостанции атмосферное давление.
Tmin - Минимальная температура - минимум температуры воздуха на высоте 2 м над землей.
Tmax - Максимальная температура - максимум температуры воздуха на высоте 2 м над землей.
R - Количество осадков - Количество выпавших осадков за период времени, мм. При наведении курсора мыши на число - период времени, за который выпало указанное количество осадков.
R24 - Количество осадков - Количество выпавших осадков за 24 часа, мм.
S - Снежный покров - Высота снежного покрова, см. При наведении курсора мыши на число - состояние снежного покрова и степень покрытия местности в баллах.